Regional Weather Roundup
Issued by NWS Kansas City/Pleasant Hill, MO

Home | Current Version | Previous Version | Text Only | Print | Product List | Glossary On
Versions: 1 2 3 4 5 6 7 8 9 10 11 12 13 14 15 16 17 18 19 20 21 22 23 24 25 26 27 28 29 30 31 32 33 34 35 36 37 38 39 40 41 42 43 44 45 46 47 48 49 50
000
ASUS43 KEAX 240110
RWREAX

WEATHER ROUNDUP FOR EASTERN KANSAS AND NORTHWEST MISSOURI
NATIONAL WEATHER SERVICE KANSAS CITY/PLEASANT HILL MO
800 PM CDT SAT MAY 23 2015

KSZ040-057-103>105-MOZ028-029-037-043-240200-
...KANSAS CITY METROPOLITAN AREA...

CITY           SKY/WX    TMP DP  RH WIND       PRES   REMARKS
K.C. INTL      RAIN      64  61  90 E7        30.07S FOG
K.C. DOWNTOWN  HVY RAIN  65  61  87 E5        30.05S FOG
LEES SUMMIT    LGT RAIN  65  58  78 E12       30.06S
OLATHE - IXD   LGT RAIN  63  61  93 E5        30.06R FOG
OLATHE - OJC   LGT RAIN  63  61  93 SE7       30.05R FOG
LAWRENCE       RAIN      63  61  93 NE3       30.06R FOG

$$

MOZ001>008-011>017-020>025-030>033-038>040-044>046-053-054-240200-
...NORTHERN AND CENTRAL MISSOURI...

CITY           SKY/WX    TMP DP  RH WIND       PRES   REMARKS
ST. JOSEPH     RAIN      63  61  93 CALM      30.09S FOG
MOSBY          RAIN      63  59  88 E5        30.06F
WHITEMAN AFB   CLOUDY    65  57  73 SE7       30.07F
CLINTON        TSTM      66  61  82 E8        30.08R
SEDALIA        CLOUDY    66  56  70 E9        30.10F
WARSAW         NOT AVBL
CHILLICOTHE      N/A     69  56  62 SE6       30.10S
KIRKSVILLE     CLOUDY    67  55  65 SE7       30.13S

$$

MOZ041-047>049-056>058-063>065-088>090-097-240200-
...EASTERN AND SOUTHERN MISSOURI...

CITY           SKY/WX    TMP DP  RH WIND       PRES   REMARKS
ST. LOUIS INTL CLOUDY    75  47  36 SE10      30.16S
SPIRIT OF STL  CLOUDY    73  50  44 S3        30.14S
COLUMBIA       CLOUDY    68  56  65 SE7       30.13R
JEFFERSON CITY CLOUDY    70  57  63 E6        30.11F
ROLLA          CLOUDY    67  51  56 SE8       30.13S
OSAGE BEACH    CLOUDY    66  57  72 SE5       30.11S
SPRINGFIELD    CLOUDY    69  58  67 SE16      30.06F
BRANSON        CLOUDY    68  63  83 E12       30.09F
JOPLIN         CLOUDY    67  64  90 E10       29.99F
WEST PLAINS    CLOUDY    68  55  63 E7        30.15S

$$

IAZ060-094-KSZ022-034>040-054-083-096-NEZ052-066-093-240200-
...KANSAS...SOUTHEAST NEBRASKA AND IOWA...

CITY           SKY/WX    TMP DP  RH WIND       PRES   REMARKS
TOPEKA         HVY RAIN  62  62 100 NE9       30.05F FOG
MANHATTAN      LGT RAIN  62  61  96 E14       29.95F
EMPORIA        HVY RAIN  59  59 100 NW6       30.02S FOG
CHANUTE        HVY RAIN  66  65  96 E10       29.97S FOG
WICHITA        TSTM      60  58  92 E21       29.89F
OMAHA          LGT RAIN  65  59  81 SE9       30.03F
LINCOLN        CLOUDY    62  60  93 E8        30.03R
FALLS CITY     LGT RAIN  62  60  93 SE10      30.05S FOG
LAMONI         CLOUDY    68  56  65 SE6       30.10R
DES MOINES     CLOUDY    71  53  52 SE7       30.10S

$$



USA.gov is the U.S. government's official web portal to all federal, state and local government web resources and services.